Volver al catálogo

STARLINK-34941

ActivoComunicacionesVLEO
NORAD 65210·PAYLOAD·🇺🇸 United States

Lanzado Aug 14, 2025 desde Cape Canaveral Space Force Station

Loading…

Próximos Pases (próximas 24 horas)

TLE

ActualizadoSource: CelesTrak SupGP

Época: Sep 14, 2026, 21:24 UTC

1 65210C 25176N   26257.89215278 -.00011394  00000+0 -33667-3 0  2573
2 65210  53.1595 350.1154 0001206  84.1872 203.4436 15.34393417    15

Sigue STARLINK-34941 en tiempo real con AllMySat

Download on the App Store